Kake, AK

2:35 AM AKST on February 27, 2017 (GMT -0900)
Kake

Weather History for PAFE - December, 2012

Change the Weather History Date:

Thursday, December 13, 2012

  Actual Average Record
Temperature  
Mean Temperature 34 °F -  
Max Temperature 37 °F 35 °F 46 °F (1997)
Min Temperature 32 °F 29 °F 24 °F (2008)
Degree Days  
Heating Degree Days 30    
Moisture  
Dew Point 32 °F    
Average Humidity 86    
Maximum Humidity 93    
Minimum Humidity 75    
Precipitation  
Precipitation 0.07 in - - ()
Sea Level Pressure  
Sea Level Pressure 29.55 in    
Wind  
Wind Speed 7 mph (ESE)    
Max Wind Speed 13 mph    
Max Gust Speed 21 mph    
Visibility 10 miles    
Events      
Averages and records for this station are not official NWS values.
T = Trace of Precipitation, MM = Missing Value Source: NWS Daily Summary

Daily Weather History Graph

Daily Weather History Graph

Search for Another Location

Airport or City:

Trip Planner

Search our weather history database for the weather conditions in past years. The results will help you decide how hot, cold, wet, or windy it might be!

Date:

Astronomy

Dec. 13, 2012 Rise Set
Actual Time 8:26 AM AKST 3:13 PM AKST
Civil Twilight 7:37 AM AKST 4:03 PM AKST
Nautical Twilight 6:46 AM AKST 4:53 PM AKST
Astronomical Twilight 5:59 AM AKST 5:40 PM AKST
Moon 8:36 AM AKST (12/13) 4:11 PM AKST (12/13)
Length of Visible Light 8h 25m
Length of Day
6h 47m
New Moon, 0% of the Moon is Illuminated
Dec 13
New Moon
Dec 19
First Quarter
Dec 28
Full
Jan 4
Last Quarter
Jan 11
New

Hourly Weather History & Observations

Time (AKST) Temp. Windchill Dew Point Humidity Pressure Visibility Wind Dir Wind Speed Gust Speed Precip Events Conditions
12:16 AM 35.6 °F 27.1 °F 32.0 °F 87% 29.45 in 10.0 mi ESE 12.7 mph 18.4 mph N/A   Overcast
12:36 AM 35.6 °F 27.5 °F 32.0 °F 87% 29.44 in 10.0 mi ESE 11.5 mph 20.7 mph N/A   Overcast
12:56 AM 35.6 °F 27.5 °F 32.0 °F 87% 29.43 in 10.0 mi ESE 11.5 mph 18.4 mph N/A   Overcast
1:16 AM 35.6 °F 27.5 °F 33.8 °F 93% 29.43 in 10.0 mi ESE 11.5 mph 18.4 mph N/A   Overcast
1:36 AM 35.6 °F 27.1 °F 33.8 °F 93% 29.43 in 10.0 mi ESE 12.7 mph 18.4 mph N/A   Overcast
1:56 AM 35.6 °F 28.0 °F 33.8 °F 93% 29.43 in 10.0 mi ESE 10.4 mph - N/A   Overcast
2:16 AM 37.4 °F 29.8 °F 33.8 °F 87% 29.44 in 10.0 mi ESE 11.5 mph - N/A   Overcast
2:36 AM 37.4 °F 29.8 °F 33.8 °F 87% 29.44 in 9.0 mi ESE 11.5 mph - N/A   Overcast
2:56 AM 37.4 °F 31.4 °F 33.8 °F 87% 29.44 in 10.0 mi East 8.1 mph - 0.01 in   Mostly Cloudy
3:36 AM 37.4 °F 31.4 °F 35.6 °F 93% 29.44 in 10.0 mi East 8.1 mph - 0.04 in   Overcast
3:56 AM 37.4 °F 30.8 °F 35.6 °F 93% 29.44 in 10.0 mi ESE 9.2 mph - 0.05 in   Overcast
4:16 AM 37.4 °F 33.8 °F 33.8 °F 87% 29.44 in 10.0 mi ESE 4.6 mph - N/A   Mostly Cloudy
4:56 AM 37.4 °F - 33.8 °F 87% 29.45 in 10.0 mi Calm Calm - N/A   Overcast
5:16 AM 37.4 °F - 33.8 °F 87% 29.46 in 10.0 mi Calm Calm - N/A   Overcast
5:36 AM 35.6 °F 32.8 °F 32.0 °F 87% 29.46 in 10.0 mi East 3.5 mph - N/A   Scattered Clouds
5:56 AM 33.8 °F 28.6 °F 28.4 °F 81% 29.47 in 10.0 mi East 5.8 mph - N/A   Clear
6:16 AM 35.6 °F 29.9 °F 33.8 °F 93% 29.48 in 10.0 mi SW 6.9 mph - N/A   Mostly Cloudy
6:36 AM 37.4 °F - 33.8 °F 87% 29.47 in 10.0 mi Calm Calm - N/A   Partly Cloudy
6:56 AM 37.4 °F - 33.8 °F 87% 29.47 in 10.0 mi Calm Calm - N/A   Clear
7:16 AM 33.8 °F 28.6 °F 30.2 °F 87% 29.48 in 10.0 mi ENE 5.8 mph - N/A   Clear
7:36 AM 33.8 °F 28.6 °F 30.2 °F 87% 29.49 in 10.0 mi SE 5.8 mph - N/A   Partly Cloudy
7:56 AM 33.8 °F - 30.2 °F 87% 29.50 in 10.0 mi Calm Calm - N/A   Mostly Cloudy
8:16 AM 35.6 °F - 32.0 °F 87% 29.50 in 10.0 mi Calm Calm - N/A   Mostly Cloudy
8:36 AM 37.4 °F 33.8 °F 33.8 °F 87% 29.50 in 10.0 mi SW 4.6 mph - N/A   Scattered Clouds
8:56 AM 37.4 °F - 33.8 °F 87% 29.50 in 10.0 mi Calm Calm - N/A   Clear
9:16 AM 35.6 °F 32.8 °F 30.2 °F 81% 29.51 in 10.0 mi SSE 3.5 mph - N/A   Scattered Clouds
9:36 AM 37.4 °F 34.9 °F 33.8 °F 87% 29.52 in 10.0 mi South 3.5 mph - N/A   Mostly Cloudy
9:56 AM 37.4 °F - 32.0 °F 81% 29.53 in 10.0 mi Calm Calm - 0.01 in   Mostly Cloudy
10:16 AM 37.4 °F - 33.8 °F 87% 29.53 in 10.0 mi Calm Calm - N/A   Mostly Cloudy
10:36 AM 37.4 °F 32.1 °F 33.8 °F 87% 29.55 in 10.0 mi East 6.9 mph - N/A   Overcast
10:56 AM 37.4 °F 33.8 °F 32.0 °F 81% 29.54 in 10.0 mi West 4.6 mph - N/A   Overcast
11:16 AM 37.4 °F - 32.0 °F 81% 29.55 in 10.0 mi Calm Calm - N/A   Mostly Cloudy
11:36 AM 37.4 °F 32.8 °F 33.8 °F 87% 29.56 in 10.0 mi SSE 5.8 mph - N/A   Mostly Cloudy
11:56 AM 37.4 °F 33.8 °F 33.8 °F 87% 29.56 in 10.0 mi SSW 4.6 mph - N/A   Overcast
12:16 PM 37.4 °F 32.1 °F 32.0 °F 81% 29.56 in 10.0 mi South 6.9 mph - N/A   Mostly Cloudy
12:36 PM 37.4 °F 33.8 °F 32.0 °F 81% 29.57 in 10.0 mi WSW 4.6 mph - N/A   Mostly Cloudy
12:56 PM 37.4 °F 31.4 °F 30.2 °F 75% 29.57 in 10.0 mi SSW 8.1 mph - N/A   Mostly Cloudy
1:16 PM 37.4 °F 33.8 °F 30.2 °F 75% 29.58 in 10.0 mi SW 4.6 mph - N/A   Overcast
1:36 PM 37.4 °F 34.9 °F 32.0 °F 81% 29.57 in 10.0 mi South 3.5 mph - N/A   Scattered Clouds
2:16 PM 35.6 °F - 30.2 °F 81% 29.58 in 10.0 mi Calm Calm - N/A   Clear
2:56 PM 35.6 °F - 30.2 °F 81% 29.59 in 10.0 mi Calm Calm - N/A   Mostly Cloudy
3:36 PM 35.6 °F 29.9 °F 30.2 °F 81% 29.60 in 10.0 mi ESE 6.9 mph - N/A   Overcast
3:56 PM 35.6 °F 31.7 °F 30.2 °F 81% 29.60 in 10.0 mi SE 4.6 mph - N/A   Mostly Cloudy
4:16 PM 33.8 °F 29.6 °F 28.4 °F 81% 29.61 in 10.0 mi ESE 4.6 mph - N/A   Clear
4:36 PM 33.8 °F 27.7 °F 30.2 °F 87% 29.61 in 10.0 mi East 6.9 mph - N/A   Mostly Cloudy
4:56 PM 33.8 °F 27.0 °F 30.2 °F 87% 29.61 in 10.0 mi ESE 8.1 mph - N/A   Mostly Cloudy
5:16 PM 33.8 °F 28.6 °F 30.2 °F 87% 29.61 in 10.0 mi ESE 5.8 mph - N/A   Overcast
5:36 PM 35.6 °F 30.7 °F 30.2 °F 81% 29.62 in 10.0 mi SE 5.8 mph - N/A   Overcast
5:56 PM 35.6 °F 29.9 °F 30.2 °F 81% 29.62 in 10.0 mi ESE 6.9 mph - N/A   Overcast
6:16 PM 33.8 °F 27.7 °F 30.2 °F 87% 29.62 in 10.0 mi ESE 6.9 mph - N/A   Overcast
6:36 PM 33.8 °F 27.7 °F 30.2 °F 87% 29.63 in 10.0 mi East 6.9 mph - N/A   Mostly Cloudy
6:56 PM 33.8 °F 27.0 °F 30.2 °F 87% 29.63 in 10.0 mi East 8.1 mph - N/A   Partly Cloudy
7:16 PM 33.8 °F 27.7 °F 30.2 °F 87% 29.63 in 10.0 mi East 6.9 mph - N/A   Partly Cloudy
7:36 PM 33.8 °F 29.6 °F 28.4 °F 81% 29.64 in 10.0 mi ESE 4.6 mph - N/A   Partly Cloudy
7:56 PM 33.8 °F 27.0 °F 30.2 °F 87% 29.64 in 10.0 mi East 8.1 mph - N/A   Clear
8:16 PM 33.8 °F 28.6 °F 30.2 °F 87% 29.65 in 10.0 mi East 5.8 mph - N/A   Scattered Clouds
8:36 PM 33.8 °F 29.6 °F 30.2 °F 87% 29.65 in 10.0 mi SE 4.6 mph - N/A   Scattered Clouds
8:56 PM 32.0 °F 25.6 °F 28.4 °F 87% 29.65 in 10.0 mi East 6.9 mph - N/A   Clear
9:16 PM 33.8 °F 27.0 °F 30.2 °F 87% 29.66 in 10.0 mi ESE 8.1 mph - N/A   Clear
9:36 PM 33.8 °F 28.6 °F 28.4 °F 81% 29.66 in 10.0 mi SE 5.8 mph - N/A   Clear
9:56 PM 33.8 °F 27.7 °F 30.2 °F 87% 29.66 in 10.0 mi East 6.9 mph - N/A   Mostly Cloudy
10:16 PM 33.8 °F 27.7 °F 30.2 °F 87% 29.66 in 10.0 mi East 6.9 mph - N/A   Overcast
10:36 PM 33.8 °F 27.7 °F 30.2 °F 87% 29.66 in 10.0 mi East 6.9 mph - N/A   Overcast
10:56 PM 33.8 °F 27.0 °F 30.2 °F 87% 29.67 in 10.0 mi East 8.1 mph - N/A   Overcast
11:16 PM 33.8 °F 26.4 °F 30.2 °F 87% 29.68 in 10.0 mi East 9.2 mph - N/A   Overcast
11:36 PM 33.8 °F 28.6 °F 30.2 °F 87% 29.68 in 10.0 mi ESE 5.8 mph - N/A   Mostly Cloudy
11:56 PM 33.8 °F 28.6 °F 30.2 °F 87% 29.68 in 10.0 mi ESE 5.8 mph - N/A   Mostly Cloudy